Regional Weather Roundup
Issued by NWS Green Bay, WI

Home | Current Version | Previous Version | Text Only | Print | Product List | Glossary On
Versions: 1 2 3 4 5 6 7 8 9 10 11 12 13 14 15 16 17 18 19 20 21 22 23 24 25 26 27 28 29 30 31 32 33 34 35 36 37 38 39 40 41 42 43 44 45 46 47 48 49 50
000
ASUS43 KGRB 050800
RWRGRB

NORTH-CENTRAL AND NORTHEAST WISCONSIN REGIONAL WEATHER ROUNDUP
NATIONAL WEATHER SERVICE GREEN BAY WI
300 AM CDT WED AUG 05 2015

WIZ005-009-010>012-018-019-050900-
NORTH CENTRAL WISCONSIN

CITY           SKY/WX    TMP DP  RH WIND       PRES   REMARKS
IRONWOOD       CLEAR     45  43  93 CALM      30.06S
MANITOWISH WTR NOT AVBL
ARBOR VITAE    NOT AVBL
EAGLE RIVER    NOT AVBL
LAND O LAKES   NOT AVBL
RHINELANDER    CLEAR     49  46  90 CALM      30.09R
PHILLIPS       CLEAR     51  51  99 CALM      30.08R
ANTIGO         NOT AVBL
TOMAHAWK       NOT AVBL
MERRILL        NOT AVBL
$$

WIZ013-073-050900-
NORTHEAST WISCONSIN

CITY           SKY/WX    TMP DP  RH WIND       PRES   REMARKS
IRON MOUNTAIN  PTCLDY    49  47  93 CALM      30.07R
MARINETTE      CLEAR     54  48  82 N3        30.05R
$$

WIZ017-030-035>037-045-050900-
CENTRAL WISCONSIN

CITY           SKY/WX    TMP DP  RH WIND       PRES   REMARKS
MEDFORD        NOT AVBL
WAUSAU         CLEAR     57  52  83 CALM      30.05S
MOSINEE        NOT AVBL
MARSHFIELD     CLEAR     58  51  78 NE6       30.05S
WISC RAPIDS    PTCLDY    57  53  86 CALM      30.06R
STEVENS POINT  NOT AVBL
WAUPACA        NOT AVBL
SHAWANO        NOT AVBL
CLINTONVILLE   NOT AVBL
$$

WIZ038-039-048-051-050900-
FOX VALLEY

CITY           SKY/WX    TMP DP  RH WIND       PRES   REMARKS
NWS GREEN BAY  CLEAR     56  54  93 CALM      30.05R
APPLETON       NOT AVBL
OSHKOSH        CLEAR     55  53  93 CALM      30.03S
FOND DU LAC    CLEAR     57  55  93 CALM      30.04R
$$

WIZ022-050-052-050900-
EAST CENTRAL WISCONSIN

CITY           SKY/WX    TMP DP  RH WIND       PRES   REMARKS
STURGEON BAY   CLEAR     59  52  77 E3        30.08R
MANITOWOC      NOT AVBL
SHEBOYGAN      CLEAR     56  54  93 N5        30.03S
$$

LMZ563-521-522-541>543-050900-
LAKESHORE

STATION/POSITION TIME  TEMP    WIND        PRES    VSBY  WAVE
                       AIR SEA DIR/SP/G                  HT/PER
                 (UTC) (F)     (DEG/KT/KT) (MB)    (MI)  (FT/S)
SHEBOYGAN LKSHOR 0700   63     330/  6/  6 1016.8F
KEWAUNEE LKSHORE 0700   61      20/  5/  8 1016.4F
ALGOMA MARINA    0713           50/  9/ 11   N/A
NORTHPORT PIER   0700   63     320/  6/ 10 1017.6S
N MID LAKE BUOY  0650   61 68  310/  6/ 10 1017.6S         1/ 3
SISTER BAY LKSHO 0718   58     130/  5/  6   N/A
CHAMBERS ISLAND  0700   64      10/  6/  8 1017.3F
MENOMINEE LKSHOR 0700   60     360/  8/  9 1018.3F
$$


USA.gov is the U.S. government's official web portal to all federal, state and local government web resources and services.